Location: Saluda
(35.2377°N, 82.3468°W)
Time: 16:35:20
(UTC+00:00)

Transit 2A - Pass Details

Date: 04 October 2022
Orbit: 598 x 959 km, 66.7° (Epoch: 06 December)

Event Time Altitude Azimuth Distance (km) Brightness Sun altitude
Rises 12:03:55 0° 349° (N) 2,978 8.8 6.7°
Reaches altitude 10° 12:06:43 10° 7° (N) 2,119 8.3 7.3°
Maximum altitude 12:10:14 20° 54° (NE) 1,628 8.5 8.0°
Drops below altitude 10° 12:13:58 10° 101° (E) 2,275 12.8 8.7°
Sets 12:17:05 0° 118° (ESE) 3,274 11.0 9.3°
